This is the latest recevied weather packets stored in our database for station/object N4WFF. If no packets are shown the sender has not sent any weather packets the latest 10 day(s).
| Time | Temp. | Humidity | Pressure | Rain* | Wind** | Luminosity | Snow |
|---|---|---|---|---|---|---|---|
| 1777742756 | 19.44° C | 70% | 1013.8 hPa | 0 mm | - | 1005 W/m² | - |
| 1777742460 | 19.44° C | 72% | 1013.8 hPa | 0 mm | - | 1100 W/m² | - |
| 1777742156 | 19.44° C | 75% | 1013.9 hPa | 0 mm | - | 1108 W/m² | - |
| 1777741856 | 19.44° C | 74% | 1013.9 hPa | 0 mm | - | 1108 W/m² | - |
| 1777741556 | 19.44° C | 74% | 1014 hPa | 0 mm | - | 1155 W/m² | - |
| 1777741256 | 18.89° C | 74% | 1014.1 hPa | 0 mm | - | 1041 W/m² | - |
| 1777740955 | 18.33° C | 79% | 1014.2 hPa | 0 mm | - | 1061 W/m² | - |
| 1777740656 | 18.33° C | 81% | 1014.2 hPa | 0 mm | - | 1128 W/m² | - |
| 1777740355 | 18.33° C | 80% | 1014.2 hPa | 0 mm | - | 354 W/m² | - |
| 1777740056 | 17.78° C | 79% | 1014.2 hPa | 0 mm | - | 1068 W/m² | - |
| 1777739756 | 17.78° C | 81% | 1014.2 hPa | 0 mm | - | 470 W/m² | - |
| 1777739456 | 17.22° C | 82% | 1014.3 hPa | 0 mm | - | 779 W/m² | - |
| 1777739155 | 17.22° C | 87% | 1014.3 hPa | 0 mm | - | 1065 W/m² | - |
| 1777738855 | 17.22° C | 85% | 1014.5 hPa | 0 mm | - | 803 W/m² | - |
| 1777738555 | 16.67° C | 87% | 1014.4 hPa | 0 mm | - | 1109 W/m² | - |
| 1777738257 | 16.67° C | 87% | 1014.3 hPa | 0 mm | - | 1141 W/m² | - |
| 1777737956 | 16.67° C | 87% | 1014.3 hPa | 0 mm | - | 608 W/m² | - |
| 1777737655 | 16.11° C | 89% | 1014.3 hPa | 0 mm | - | 431 W/m² | - |
| 1777737356 | 16.11° C | 89% | 1014.3 hPa | 0 mm | - | 481 W/m² | - |
| 1777737055 | 15.56° C | 89% | 1014.4 hPa | 0 mm | - | 552 W/m² | - |
| 1777736755 | 15.56° C | 90% | 1014.4 hPa | 0 mm | - | 825 W/m² | - |
| 1777736456 | 15.56° C | 90% | 1014.3 hPa | 0 mm | - | 705 W/m² | - |
| 1777736155 | 15° C | 92% | 1014.3 hPa | 0 mm | - | 439 W/m² | - |
| 1777735855 | 14.44° C | 92% | 1014.2 hPa | 0 mm | - | 977 W/m² | - |
| 1777735555 | 14.44° C | 94% | 1014.2 hPa | 0 mm | - | 363 W/m² | - |
* Rain latest hour (hover to see other rain measurements)
** Current wind speed in m/s (hover to see current wind gust speed)